Weather History for Immokalee Regional Airport [I, FL

Change the Weather History Date:

Wednesday, May 7, 2014

  Actual Average (KFMY) Record (KFMY)
Temperature  
Mean Temperature 76 °F 77 °F  
Max Temperature 93 °F 88 °F 94 °F (1984)
Min Temperature 60 °F 67 °F 51 °F (1921)
Degree Days  
Heating Degree Days 0 0  
Month to date heating degree days 0  
Since 1 July heating degree days 287  
Cooling Degree Days 12 12  
Month to date cooling degree days 82  
Year to date cooling degree days 712  
Growing Degree Days 26 (Base 50)    
Moisture  
Dew Point 66 °F    
Average Humidity 61    
Maximum Humidity 100    
Minimum Humidity 34    
Precipitation  
Precipitation 0.00 in 0.07 in 3.12 in (1968)
Month to date precipitation 0.40  
Year to date precipitation 9.55  
Sea Level Pressure  
Sea Level Pressure 30.09 in    
Wind  
Wind Speed 4 mph (ESE)    
Max Wind Speed 14 mph    
Max Gust Speed 17 mph    
Visibility 8 miles    
Events      
T = Trace of Precipitation, MM = Missing Value Source: NWS Daily Summary

Daily Weather History Graph

Daily Weather History Graph

Search for Another Location

Airport:

Trip Planner

Search our weather history database for the weather conditions in past years. The results will help you decide how hot, cold, wet, or windy it might be!

Date:

Astronomy

May. 07, 2014 Rise Set
Actual Time 6:43 AM EDT 8:01 PM EDT
Civil Twilight 6:18 AM EDT 8:25 PM EDT
Nautical Twilight 5:49 AM EDT 8:55 PM EDT
Astronomical Twilight 5:19 AM EDT 9:25 PM EDT
Moon 1:43 PM EDT (5/7) 2:01 AM EDT (5/7)
Length of Visible Light 14h 06m
Length of Day
13h 17m
First Quarter, 55% of the Moon is Illuminated
May 7
First Quarter
May 14
Full
May 21
Last Quarter
May 28
New
Jun 5
First Quarter

Hourly Weather History & Observations

Time (EDT) Temp. Heat Index Dew Point Humidity Pressure Visibility Wind Dir Wind Speed Gust Speed Precip Events Conditions
12:15 AM 69.8 °F - 69.8 °F 100% 30.06 in 10.0 mi Calm Calm - 0.00 in   Clear
12:35 AM 66.2 °F - 66.2 °F 100% 30.06 in 9.0 mi Calm Calm - 0.00 in   Clear
12:55 AM 64.4 °F - 64.4 °F 100% 30.06 in 10.0 mi Calm Calm - 0.00 in   Clear
1:15 AM 64.4 °F - 64.4 °F 100% 30.05 in 10.0 mi Calm Calm - 0.00 in   Clear
1:35 AM 64.4 °F - - N/A% 30.05 in 10.0 mi Calm Calm - 0.00 in   Clear
1:55 AM 64.4 °F - - N/A% 30.04 in 10.0 mi Calm Calm - 0.00 in   Clear
2:15 AM 62.6 °F - - N/A% 30.04 in 9.0 mi Calm Calm - 0.00 in   Clear
2:35 AM 62.6 °F - - N/A% 30.03 in 9.0 mi Calm Calm - 0.00 in   Clear
2:55 AM 62.6 °F - - N/A% 30.03 in 9.0 mi Calm Calm - 0.00 in   Clear
3:15 AM 60.8 °F - - N/A% 30.03 in 10.0 mi Calm Calm - 0.00 in   Clear
3:35 AM 60.8 °F - - N/A% 30.03 in 10.0 mi Calm Calm - 0.00 in   Clear
3:55 AM 60.8 °F - - N/A% 30.03 in 9.0 mi Calm Calm - 0.00 in   Clear
4:15 AM 60.8 °F - - N/A% 30.03 in 8.0 mi Calm Calm - 0.00 in   Clear
4:35 AM 60.8 °F - - N/A% 30.03 in 10.0 mi Calm Calm - 0.00 in   Clear
4:55 AM 60.8 °F - - N/A% 30.04 in 8.0 mi Calm Calm - 0.00 in   Clear
5:15 AM 60.8 °F - - N/A% 30.05 in 8.0 mi Calm Calm - 0.00 in   Clear
5:35 AM 60.8 °F - - N/A% 30.05 in 5.0 mi Calm Calm - 0.00 in   Clear
5:55 AM 60.8 °F - - N/A% 30.05 in 2.0 mi Calm Calm - 0.00 in   Clear
6:15 AM 60.8 °F - - N/A% 30.06 in 2.0 mi Calm Calm - 0.00 in   Clear
6:35 AM 60.8 °F - - N/A% 30.07 in 1.0 mi Calm Calm - 0.00 in   Clear
6:55 AM 60.8 °F - - N/A% 30.08 in 0.2 mi Calm Calm - 0.00 in   Unknown
7:15 AM 60.8 °F - - N/A% 30.09 in 0.2 mi Calm Calm - 0.00 in   Unknown
7:35 AM 62.6 °F - - N/A% 30.10 in 1.8 mi Calm Calm - 0.00 in   Clear
7:55 AM 66.2 °F - - N/A% 30.11 in 3.0 mi Calm Calm - 0.00 in   Clear
8:15 AM 68.0 °F - - N/A% 30.11 in 4.0 mi Calm Calm - 0.00 in   Clear
8:35 AM 71.6 °F - 71.6 °F 100% 30.12 in 5.0 mi East 3.5 mph - 0.00 in   Clear
8:55 AM 75.2 °F - 75.2 °F 100% 30.12 in 7.0 mi East 5.8 mph - 0.00 in   Clear
9:15 AM 78.8 °F - 75.2 °F 89% 30.12 in 8.0 mi East 6.9 mph - 0.00 in   Clear
9:35 AM 80.6 °F 85.4 °F 73.4 °F 79% 30.13 in 7.0 mi East 8.1 mph - 0.00 in   Clear
9:55 AM 82.4 °F 88.2 °F 73.4 °F 74% 30.13 in 9.0 mi East 5.8 mph - 0.00 in   Clear
10:15 AM 84.2 °F 88.4 °F 69.8 °F 62% 30.13 in 8.0 mi ESE 8.1 mph - 0.00 in   Clear
10:35 AM 84.2 °F 88.4 °F 69.8 °F 62% 30.13 in 7.0 mi SSE 8.1 mph - 0.00 in   Partly Cloudy
10:55 AM 86.0 °F 89.4 °F 68.0 °F 55% 30.13 in 7.0 mi East 10.4 mph - 0.00 in   Scattered Clouds
11:15 AM 87.8 °F 90.4 °F 66.2 °F 49% 30.13 in 7.0 mi ESE 8.1 mph - 0.00 in   Scattered Clouds
11:35 AM 87.8 °F 90.4 °F 66.2 °F 49% 30.13 in 9.0 mi SE 8.1 mph - 0.00 in   Partly Cloudy
11:55 AM 89.6 °F 92.2 °F 66.2 °F 46% 30.13 in 8.0 mi ESE 9.2 mph - 0.00 in   Partly Cloudy
12:15 PM 87.8 °F 90.4 °F 66.2 °F 49% 30.12 in 8.0 mi East 11.5 mph - 0.00 in   Partly Cloudy
12:35 PM 89.6 °F 92.2 °F 66.2 °F 46% 30.12 in 8.0 mi ESE 10.4 mph 16.1 mph 0.00 in   Partly Cloudy
12:55 PM 91.4 °F 93.2 °F 64.4 °F 41% 30.11 in 7.0 mi East 9.2 mph - 0.00 in   Clear
1:15 PM 89.6 °F 91.1 °F 64.4 °F 43% 30.11 in 9.0 mi East 8.1 mph - 0.00 in   Partly Cloudy
1:35 PM 89.6 °F 91.1 °F 64.4 °F 43% 30.10 in 8.0 mi SE 9.2 mph - 0.00 in   Scattered Clouds
1:55 PM 89.6 °F 90.1 °F 62.6 °F 40% 30.10 in 8.0 mi East 8.1 mph - 0.00 in   Partly Cloudy
2:15 PM 91.4 °F 93.2 °F 64.4 °F 41% 30.09 in 8.0 mi East 9.2 mph - 0.00 in   Partly Cloudy
2:35 PM 93.2 °F 94.1 °F 62.6 °F 36% 30.09 in 8.0 mi SE 13.8 mph 17.3 mph 0.00 in   Partly Cloudy
2:55 PM 91.4 °F 92.1 °F 62.6 °F 38% 30.09 in 8.0 mi East 9.2 mph 16.1 mph 0.00 in   Scattered Clouds
3:15 PM 93.2 °F 94.1 °F 62.6 °F 36% 30.09 in 8.0 mi ESE 11.5 mph 16.1 mph 0.00 in   Partly Cloudy
3:35 PM 93.2 °F 93.3 °F 60.8 °F 34% 30.08 in 8.0 mi SE 9.2 mph - 0.00 in   Partly Cloudy
3:55 PM 91.4 °F 91.4 °F 60.8 °F 36% 30.08 in 8.0 mi ESE 11.5 mph - 0.00 in   Scattered Clouds
4:15 PM 91.4 °F 91.4 °F 60.8 °F 36% 30.07 in 6.0 mi ESE 8.1 mph - 0.00 in   Scattered Clouds
4:35 PM 93.2 °F 93.3 °F 60.8 °F 34% 30.06 in 8.0 mi ESE 8.1 mph - 0.00 in   Scattered Clouds
4:55 PM 93.2 °F 93.3 °F 60.8 °F 34% 30.07 in 7.0 mi ESE 12.7 mph 16.1 mph 0.00 in   Partly Cloudy
5:15 PM 91.4 °F 91.4 °F 60.8 °F 36% 30.07 in 7.0 mi SE 12.7 mph 16.1 mph 0.00 in   Partly Cloudy
5:35 PM 91.4 °F 91.4 °F 60.8 °F 36% 30.06 in 8.0 mi ESE 11.5 mph 17.3 mph 0.00 in   Scattered Clouds
5:55 PM 89.6 °F 89.5 °F 60.8 °F 38% 30.06 in 7.0 mi ESE 9.2 mph - 0.00 in   Partly Cloudy
6:15 PM 89.6 °F 89.5 °F 60.8 °F 38% 30.07 in 9.0 mi ESE 13.8 mph - 0.00 in   Clear
6:35 PM 89.6 °F 90.1 °F 62.6 °F 40% 30.07 in 8.0 mi ESE 13.8 mph 17.3 mph 0.00 in   Clear
6:55 PM 87.8 °F 87.6 °F 60.8 °F 40% 30.07 in 8.0 mi ESE 12.7 mph - 0.00 in   Clear
7:15 PM 86.0 °F 86.1 °F 60.8 °F 43% 30.08 in 7.0 mi ESE 8.1 mph - 0.00 in   Clear
7:35 PM 84.2 °F 84.4 °F 60.8 °F 45% 30.08 in 8.0 mi ESE 9.2 mph - 0.00 in   Clear
7:55 PM 82.4 °F 82.9 °F 60.8 °F 48% 30.08 in 8.0 mi ESE 8.1 mph - 0.00 in   Clear
8:15 PM 80.6 °F 81.8 °F 62.6 °F 54% 30.09 in 8.0 mi East 9.2 mph - 0.00 in   Clear
8:35 PM 78.8 °F - 64.4 °F 61% 30.10 in 9.0 mi East 9.2 mph - 0.00 in   Clear
8:55 PM 78.8 °F - 66.2 °F 65% 30.10 in 10.0 mi East 9.2 mph - 0.00 in   Clear
9:15 PM 78.8 °F - 68.0 °F 69% 30.11 in 10.0 mi ESE 10.4 mph - 0.00 in   Clear
9:35 PM 77.0 °F - 69.8 °F 78% 30.11 in 10.0 mi ESE 8.1 mph - 0.00 in   Clear
9:55 PM 75.2 °F - 69.8 °F 83% 30.12 in 10.0 mi ESE 9.2 mph - 0.00 in   Clear
10:15 PM 75.2 °F - 69.8 °F 83% 30.13 in 9.0 mi ESE 8.1 mph - 0.00 in   Clear
10:35 PM 75.2 °F - 71.6 °F 89% 30.14 in 9.0 mi East 6.9 mph - 0.00 in   Clear
10:55 PM 73.4 °F - 71.6 °F 94% 30.15 in 9.0 mi East 6.9 mph - 0.00 in   Clear
11:15 PM 73.4 °F - 71.6 °F 94% 30.16 in 10.0 mi East 4.6 mph - 0.00 in   Clear
11:35 PM 71.6 °F - 71.6 °F 100% 30.15 in 8.0 mi East 5.8 mph - 0.00 in   Clear
11:55 PM 71.6 °F - 71.6 °F 100% 30.15 in 8.0 mi East 4.6 mph - 0.00 in   Clear